sat.trackr.live / text

‹ back to catalog

STARLINK-35583

NORAD 66611 · 2025-270Z

PAYLOAD ACTIVE UNKNOWN

§ Identity

Operator
Country
US
Launch date
2025-11-22
Launch site
AFETR
Launch vehicle
Mass (kg)
RCS (m²)

Purposes: comms

External: N2YO · Heavens-Above · Gunter

§ Orbital elements

Epoch: 2026-05-24T21:48:18.804672Z

Period
94.27 min
Inclination
43.0008°
Eccentricity
0.0001677
Mean motion
15.27594266 rev/d
Perigee alt
481.9 km
Apogee alt
484.2 km
Semi-major
6,861.1 km
B*
3.6222e-4
RAAN
345.6376°
Arg perigee
279.4267°
Mean anomaly
80.6395°
Rev number
2,947

§ Raw data

STARLINK-355831 66611U 25270Z   26144.90855098  .00009723  00000+0  36222-3 0  99952 66611  43.0008 345.6376 0001677 279.4267  80.6395 15.27594266 29479

JSON: /api/v1/satellites/66611 · /tle

For live sub-satellite position, see the globe view (requires WebGL).

§ Visibility from observer

Set your observer location to see the next 7 days of passes ≥ 10°. The values pass through the URL so the page stays shareable.

No JS? Fill the form by hand. The geolocation button needs JavaScript.